De Queen, AR

5:22 PM CST on January 21, 2020 (GMT -0600)
Helms Sevier County

Weather History for KDEQ - October, 2019

Change the Weather History Date:

Sunday, October 27, 2019

  Actual Average Record
Temperature  
Mean Temperature 58 °F 60 °F  
Max Temperature 70 °F 73 °F 93 °F (1939)
Min Temperature 45 °F 47 °F 26 °F (1957)
Degree Days  
Heating Degree Days 8 6  
Month to date heating degree days 123 97  
Since 1 July heating degree days 123 106  
Cooling Degree Days 0 1  
Month to date cooling degree days 96 67  
Year to date cooling degree days 2313 1932  
Growing Degree Days 8 (Base 50)    
Moisture  
Dew Point 50 °F    
Average Humidity 89    
Maximum Humidity 100    
Minimum Humidity 57    
Precipitation  
Precipitation 0.00 in 0.14 in 1.40 in (1951)
Month to date precipitation 3.74 4.01  
Year to date precipitation 45.83 39.21  
Snow  
Snow 0.00 in - - ()
Month to date snowfall 0.0  
Since 1 July snowfall 0.0  
Since 1 September snowfall 0.0  
Snow Depth 0.00 in    
Sea Level Pressure  
Sea Level Pressure 29.96 in    
Wind  
Wind Speed 3 mph ()    
Max Wind Speed 10 mph    
Max Gust Speed 14 mph    
Visibility 4.0 miles    
Events Fog    
T = Trace of Precipitation, MM = Missing Value Source: Averaged Metar Reports

Daily Weather History Graph

Daily Weather History Graph

Search for Another Location

Airport or City:

Astronomy

Oct. 27, 2019 Rise Set
Actual Time 7:32 AM CDT 6:29 PM CDT
Civil Twilight 7:06 AM CDT 6:55 PM CDT
Nautical Twilight 6:37 AM CDT 7:24 PM CDT
Astronomical Twilight 6:08 AM CDT 7:53 PM CDT
Moon 6:47 AM CDT (10/27) 6:36 PM CDT (10/27)
Length of Visible Light 11h 48m
Length of Day
10h 57m
Waning Crescent, 0% of the Moon is Illuminated
Oct 27
Waning Crescent
Oct 27
New
Nov 4
First Quarter
Nov 12
Full
Nov 19
Last Quarter

Hourly Weather History & Observations

Time (CDT) Temp. Windchill Dew Point Humidity Pressure Visibility Wind Dir Wind Speed Gust Speed Precip Events Conditions
12:53 AM 46.0 °F - 44.1 °F 93% 29.88 in 0.2 mi Calm Calm - N/A Fog Fog
1:53 AM 45.0 °F 43.5 °F 43.0 °F 93% 29.89 in 0.2 mi East 3.5 mph - N/A Fog Fog
2:53 AM 46.0 °F - 44.1 °F 93% 29.89 in 0.5 mi Calm Calm - N/A Fog Fog
3:07 AM 46.0 °F - 44.1 °F 93% 29.90 in 2.5 mi Calm Calm - N/A   Overcast
3:18 AM 46.9 °F - 45.0 °F 93% 29.90 in 0.8 mi East 4.6 mph - N/A   Overcast
3:28 AM 46.9 °F - 46.0 °F 97% 29.90 in 0.2 mi East 3.5 mph - N/A Fog Fog
3:53 AM 48.0 °F - 46.0 °F 93% 29.90 in 0.8 mi ENE 3.5 mph - N/A   Mist
4:01 AM 48.0 °F - 46.0 °F 93% 29.91 in 1.2 mi NE 3.5 mph - N/A   Overcast
4:14 AM 48.0 °F - 46.0 °F 93% 29.91 in 0.5 mi NE 4.6 mph - N/A Fog Fog
4:22 AM 48.0 °F - 46.9 °F 96% 29.91 in 0.2 mi ENE 4.6 mph - N/A Fog Fog
4:53 AM 48.9 °F - 46.9 °F 93% 29.91 in 0.2 mi East 4.6 mph - N/A Fog Fog
5:04 AM 48.0 °F - 46.9 °F 96% 29.92 in 0.5 mi East 4.6 mph - N/A Fog Fog
5:53 AM 50.0 °F - 48.0 °F 93% 29.93 in 0.5 mi ENE 3.5 mph - N/A Fog Fog
6:09 AM 50.0 °F - 48.0 °F 93% 29.94 in 0.2 mi ENE 3.5 mph - N/A Fog Fog
6:44 AM 50.0 °F - 48.9 °F 96% 29.95 in 0.5 mi ENE 3.5 mph - N/A Fog Fog
6:53 AM 50.0 °F - 48.9 °F 96% 29.95 in 0.5 mi East 3.5 mph - N/A Fog Fog
7:50 AM 50.0 °F - 48.2 °F 94% 29.97 in 0.2 mi ENE 4.6 mph - N/A Fog Fog
7:51 AM 50.0 °F - 48.9 °F 96% 29.97 in 0.2 mi ENE 3.5 mph - N/A Fog Fog
8:53 AM 51.1 °F - 50.0 °F 96% 30.00 in 0.2 mi East 4.6 mph - N/A Fog Fog
9:53 AM 52.0 °F - 51.1 °F 97% 30.02 in 0.2 mi East 5.8 mph - N/A Fog Fog
10:04 AM 52.0 °F - 51.1 °F 97% 30.03 in 0.8 mi East 4.6 mph - N/A   Overcast
10:23 AM 52.0 °F - 51.1 °F 97% 30.03 in 1.2 mi East 4.6 mph - N/A   Overcast
10:53 AM 53.1 °F - 52.0 °F 96% 30.03 in 4.0 mi East 4.6 mph - N/A   Overcast
11:41 AM 54.0 °F - 52.0 °F 93% 30.03 in 7.0 mi ESE 3.5 mph - N/A   Overcast
11:53 AM 55.9 °F - 53.1 °F 90% 30.03 in 8.0 mi Calm Calm - N/A   Overcast
12:38 PM 60.1 °F - 54.0 °F 80% 30.02 in 10.0 mi East 4.6 mph - N/A   Scattered Clouds
12:53 PM 62.1 °F - 54.0 °F 75% 30.00 in 10.0 mi Calm Calm - N/A   Clear
1:53 PM 66.0 °F - 54.0 °F 65% 29.97 in 10.0 mi Variable 4.6 mph - N/A   Clear
2:53 PM 68.0 °F - 53.1 °F 59% 29.95 in 10.0 mi South 4.6 mph - N/A   Clear
3:53 PM 70.0 °F - 54.0 °F 57% 29.95 in 10.0 mi SE 8.1 mph - N/A   Clear
4:53 PM 70.0 °F - 55.0 °F 59% 29.94 in 10.0 mi SE 5.8 mph - N/A   Clear
5:53 PM 66.9 °F - 55.9 °F 68% 29.93 in 10.0 mi ESE 4.6 mph - N/A   Clear
6:53 PM 61.0 °F - 55.0 °F 81% 29.94 in 10.0 mi East 3.5 mph - N/A   Clear
7:53 PM 55.9 °F - 54.0 °F 93% 29.97 in 5.0 mi Calm Calm - N/A   Clear
8:03 PM 55.0 °F - 52.0 °F 89% 29.97 in 2.0 mi East 3.5 mph - N/A   Clear
8:12 PM 57.0 °F - 54.0 °F 89% 29.97 in 9.0 mi East 5.8 mph - N/A   Clear
8:53 PM 57.9 °F - 55.0 °F 90% 29.98 in 10.0 mi East 6.9 mph - N/A   Clear
9:53 PM 57.0 °F - 54.0 °F 89% 29.99 in 9.0 mi East 6.9 mph - N/A   Clear
10:49 PM 55.4 °F - 53.6 °F 94% 30.00 in 7.0 mi NE 4.6 mph - N/A   Partly Cloudy
10:53 PM 55.9 °F - 53.1 °F 90% 29.99 in 6.0 mi Calm Calm - N/A   Scattered Clouds
11:05 PM 55.9 °F - 54.0 °F 93% 30.01 in 6.0 mi ENE 3.5 mph - N/A   Mostly Cloudy